Theta_e
353 352 348 348 347 346 345 345 345 346 345 350 342 344 340 342 343 340 338 334 330 330 332 333 335 335 334 334 333 333 332 329 327 326 326 328 329 327
351 352 352 351 349 349 348 347 345 345 344 343 344 343 344 343 341 341 339 335 331 330 331 332 331 331 332 333 334 334 334 334 333 330 327 326 329 329
354 354 354 352 352 348 349 348 347 347 346 345 343 343 343 344 339 339 339 341 346 345 343 341 340 339 334 333 333 334 335 335 334 334 332 329 327 330
353 352 354 354 349 346 351 350 349 348 348 346 347 348 349 348 348 347 347 349 348 346 342 342 344 344 342 339 336 335 335 335 335 335 334 333 331 329
353 354 354 354 354 353 353 351 351 352 355 355 354 352 350 350 348 348 348 351 352 352 351 350 350 351 351 350 351 348 347 344 338 335 335 334 334 332
354 354 354 355 355 354 353 353 353 351 353 353 353 352 349 347 348 350 352 352 353 354 354 353 354 354 355 354 353 352 351 350 349 347 342 336 334 334
354 354 354 354 355 356 357 356 356 356 356 353 351 349 348 349 353 353 352 354 352 349 351 357 359 358 357 358 356 354 354 354 354 352 351 348 345 336
354 354 353 354 354 352 348 344 346 349 349 354 352 350 350 351 353 353 352 350 353 358 360 359 359 358 357 356 355 356 355 354 353 353 352 351 350 347
349 349 351 352 352 351 348 344 342 342 343 340 340 339 339 339 340 343 352 356 359 359 357 359 359 357 357 357 356 355 353 353 351 350 350 348 348 348
346 346 343 341 344 352 354 355 354 350 339 346 350 347 346 347 353 358 358 358 357 357 357 357 359 359 359 357 353 350 349 347 345 345 344 343 344 345
336 334 335 337 334 332 335 337 336 336 344 345 347 349 352 356 358 360 358 357 359 358 358 358 358 356 353 350 347 346 344 344 343 343 343 343 342 342
343 336 333 332 332 332 333 336 339 342 348 350 354 359 360 361 359 359 360 359 359 360 358 356 356 354 348 342 344 341 337 337 336 336 338 339 339 339
350 347 349 348 346 345 344 344 342 342 347 357 360 362 362 361 360 359 359 359 360 360 355 357 353 348 345 342 336 335 334 332 331 330 333 337 339 340
345 345 346 347 348 350 354 357 357 357 357 358 357 361 358 357 356 358 358 356 356 355 349 344 345 344 341 337 335 333 333 330 327 327 327 328 328 329
339 349 348 349 354 359 361 361 359 359 360 360 359 358 361 361 358 356 355 354 351 345 345 342 340 336 334 335 333 332 331 326 326 325 326 327 331 334
340 343 348 354 358 361 362 361 359 360 360 359 360 361 361 359 357 353 352 350 344 343 342 340 337 335 335 332 328 331 327 326 325 325 325 326 328 333
349 351 354 356 359 360 362 361 360 360 359 361 362 360 355 353 353 351 346 343 342 341 341 340 337 335 334 327 328 327 326 326 325 324 324 323 323 326
356 359 361 360 360 362 364 364 360 360 361 362 359 353 351 350 347 344 342 341 342 341 341 337 337 336 333 330 329 325 326 326 324 323 323 321 320 319
361 360 362 364 363 361 360 360 362 360 357 354 348 347 346 345 342 341 341 341 341 341 338 336 337 335 333 330 328 323 326 325 323 322 322 320 317 316
361 358 360 361 361 360 359 356 351 347 346 346 346 344 342 342 342 342 341 340 339 338 336 336 336 335 332 330 327 325 325 324 321 321 320 320 319 316
361 358 358 358 355 353 351 347 347 344 343 340 336 336 339 338 338 338 337 335 335 333 335 336 334 334 331 330 330 329 324 324 321 320 320 318 317 315
351 347 345 345 346 344 344 341 338 336 334 333 333 333 334 336 337 335 333 333 333 333 332 333 333 333 331 331 330 329 324 323 322 320 319 318 316 314
344 341 341 344 342 337 335 333 331 330 330 331 330 331 332 334 333 331 332 332 336 332 330 331 331 333 332 330 326 326 325 323 322 322 319 317 314 315
Wind_Speed
9 11 10 6 7 6 6 6 6 5 3 3 2 7 7 6 9 16 15 17 17 17 18 20 20 21 22 22 22 22 22 22 22 22 21 18 16 13
9 12 10 9 9 9 8 8 8 8 9 6 6 8 11 12 13 19 20 20 23 23 22 23 24 25 27 28 29 29 28 27 25 25 24 24 21 18
15 12 14 14 10 9 9 10 10 10 12 12 11 12 15 22 25 23 21 21 21 24 26 28 29 29 30 32 34 35 35 34 33 31 28 27 27 25
15 15 15 13 15 15 15 14 13 13 14 19 18 19 18 18 23 27 29 20 19 20 24 25 25 25 26 30 35 38 39 41 41 39 36 34 32 30
18 19 18 18 19 15 16 15 14 15 15 16 19 18 20 19 20 22 23 22 23 21 25 26 29 33 32 29 29 29 32 35 40 43 43 42 39 37
20 20 20 21 21 19 18 19 18 18 18 19 20 21 21 20 20 22 20 19 24 23 24 28 31 31 31 32 30 32 32 30 29 31 38 44 45 45
22 22 22 23 22 23 19 18 18 19 18 19 21 21 22 21 19 23 29 27 27 30 32 28 25 27 32 31 37 33 32 34 37 36 35 33 36 45
24 24 24 24 25 26 27 26 25 26 27 24 24 26 29 28 25 26 31 36 36 21 26 30 27 30 28 27 28 31 33 34 38 41 38 37 35 37
26 26 23 20 22 23 23 24 26 28 31 32 35 36 37 35 36 35 27 28 29 29 30 29 23 25 25 24 29 31 31 33 39 40 38 35 34 35
29 27 27 27 26 22 21 22 25 27 28 27 31 35 35 30 28 29 32 32 32 25 25 31 27 28 26 27 30 30 29 31 34 38 42 40 36 35
34 34 34 35 34 32 32 34 35 37 32 32 32 31 28 26 26 27 31 28 30 31 28 27 23 30 33 25 25 24 32 31 33 33 36 39 38 40
33 35 37 37 37 36 37 37 39 37 30 26 25 24 26 26 23 23 25 28 27 34 20 26 24 25 30 30 28 27 30 29 33 34 35 35 37 40
29 28 27 27 28 27 28 30 34 32 31 24 23 21 19 19 20 22 24 26 30 31 26 21 28 22 21 29 31 30 31 34 35 37 32 33 34 36
33 25 24 26 27 28 29 28 25 24 25 25 21 20 23 26 28 27 27 27 25 24 23 20 17 18 21 23 27 29 28 31 34 35 38 35 40 35
36 26 29 30 29 30 30 28 24 25 25 24 25 27 27 26 25 24 22 16 16 17 14 20 21 23 18 18 23 25 28 37 31 39 38 36 33 30
37 37 34 33 31 24 24 26 25 24 22 25 26 26 29 25 19 13 11 12 14 13 12 18 20 19 17 19 20 20 27 29 35 38 39 36 29 22
33 32 29 27 27 25 24 24 26 24 25 25 26 21 17 12 11 11 13 12 12 12 12 11 13 17 20 21 17 21 31 31 34 38 39 37 33 28
23 23 21 24 24 22 23 22 24 25 25 19 17 14 9 10 12 11 12 11 11 11 12 12 12 14 15 18 18 24 26 28 30 34 36 35 34 31
19 17 22 22 24 23 22 24 21 20 14 13 10 7 10 9 11 10 10 11 11 12 13 11 11 13 15 15 16 19 23 25 27 30 33 31 29 31
26 24 20 20 20 20 17 15 9 10 13 13 13 9 8 9 10 10 10 11 11 11 12 10 12 13 12 14 14 20 19 20 21 22 25 24 25 22
22 20 16 17 16 16 17 15 16 18 15 13 12 7 10 11 10 11 11 13 14 14 12 12 15 19 22 10 13 14 20 14 14 15 17 16 16 14
17 12 15 17 16 15 13 12 11 13 12 10 10 10 10 11 10 11 13 14 16 18 17 19 14 17 12 12 15 15 14 9 10 9 9 8 6 3
15 14 13 12 11 10 8 7 7 7 7 6 6 7 8 9 9 10 12 13 14 15 19 18 16 12 17 13 14 9 15 9 6 6 7 7 4 3
Wind_Direction
235 232 225 225 241 238 242 240 253 286 297 286 293 252 265 270 284 291 293 297 302 299 296 293 291 289 287 286 283 281 279 277 274 273 271 268 270 269
217 241 236 230 239 242 241 246 246 254 272 275 285 283 276 272 278 278 287 287 286 292 291 288 287 286 285 285 284 281 279 278 276 273 271 268 263 261
211 230 245 227 225 239 252 251 251 258 269 277 278 281 285 292 297 300 296 285 286 295 300 300 297 292 286 282 281 280 279 278 276 275 272 269 264 259
230 230 237 244 252 229 228 245 249 253 264 274 278 283 289 298 301 307 311 309 292 286 283 296 304 309 305 295 286 282 280 277 274 273 272 270 267 262
231 236 238 240 240 238 248 253 263 279 278 280 287 290 291 293 295 299 304 302 304 313 313 312 307 301 304 307 314 307 300 290 281 275 270 267 266 264
234 238 240 240 245 251 252 251 257 259 267 274 283 291 295 296 294 297 300 302 300 301 301 302 306 308 313 312 308 306 303 300 300 298 283 272 264 261
232 240 242 239 241 245 245 258 261 266 270 276 282 287 291 295 294 296 299 302 298 299 301 297 297 296 301 300 299 303 305 302 300 295 295 293 283 266
237 238 238 241 253 255 256 257 252 256 263 269 276 279 280 288 292 291 289 293 299 309 297 301 304 299 299 304 310 309 305 300 299 295 294 295 295 290
242 244 244 246 259 267 274 270 265 262 266 274 276 278 283 288 293 295 294 293 294 301 308 303 306 304 305 312 308 310 312 307 306 303 301 298 294 284
240 249 255 248 240 243 258 265 275 281 286 286 286 290 293 300 299 298 295 294 296 300 305 303 312 312 315 305 302 305 303 300 298 300 300 299 295 287
251 251 252 257 263 265 262 265 267 269 271 274 277 284 290 290 290 290 291 294 298 304 310 304 311 307 314 318 319 323 321 315 313 307 307 301 295 293
254 256 258 261 263 265 267 270 273 276 279 275 272 275 279 285 288 283 286 290 298 308 308 311 311 321 317 326 317 320 321 315 305 306 301 302 295 290
246 249 258 269 273 273 271 270 272 276 270 269 272 272 278 282 284 286 291 294 299 299 312 303 305 314 309 309 315 325 318 321 323 318 303 294 290 281
238 246 255 260 265 269 272 273 271 269 266 269 272 275 275 285 289 300 291 291 294 296 302 304 304 309 310 315 317 319 323 322 333 331 324 318 310 300
245 242 242 248 254 258 263 271 269 263 264 265 273 283 286 291 299 296 298 303 306 310 308 288 295 306 314 314 314 323 319 339 341 336 334 332 326 319
241 244 241 239 245 247 252 262 270 265 259 271 275 279 287 303 294 296 294 292 282 284 282 295 308 313 315 317 324 326 330 343 347 346 346 351 348 346
242 241 241 243 248 251 256 256 259 261 268 272 277 280 290 283 293 291 274 279 279 284 288 295 296 312 310 326 332 330 342 349 353 354 354 354 357 354
230 226 233 233 239 238 247 252 262 269 271 266 268 273 275 274 273 270 270 276 284 290 289 299 304 305 313 322 319 336 347 349 357 3 3 360 2 5
226 222 225 229 240 248 255 259 259 262 249 255 273 264 264 268 273 279 277 279 285 283 294 299 298 303 306 314 314 343 345 353 5 15 19 19 15 15
234 235 236 240 245 250 250 245 226 230 237 223 228 246 263 268 268 269 268 275 283 288 296 295 291 289 293 296 306 327 345 355 9 21 31 31 33 27
228 230 224 230 232 234 225 220 221 224 236 258 265 255 248 251 253 259 264 278 281 294 291 290 294 288 299 296 289 301 329 351 13 26 41 49 50 57
177 168 199 209 222 217 226 228 238 247 258 262 267 262 264 265 265 273 281 288 293 297 293 298 284 284 290 288 295 288 312 326 354 16 38 31 39 82
198 198 207 213 227 228 237 255 260 254 266 274 274 269 267 269 270 268 280 288 287 291 300 302 292 273 264 269 270 271 297 317 317 311 325 334 5 61